Terminal Aerodrome Forecast
Issued by NWS

Home | Current Version | Previous Version | Text Only | Print | Product List | Glossary On
Versions: 1 2 3 4 5 6 7 8 9 10 11 12 13 14 15
000
FTUS45 KBYZ 301729
TAFLVM
TAF
KLVM 301729Z 3018/3118 10006KT P6SM FEW100
     FM302200 16013G20KT P6SM SCT070
     FM310200 VRB06KT P6SM SCT120
     FM310900 22016G25KT P6SM SCT200=

USA.gov is the U.S. government's official web portal to all federal, state and local government web resources and services.